Other Public Products
Issued by NWS Grand Forks, ND

Home | Current Version | Previous Version | Text Only | Print | Product List | Glossary On
Versions: 1 2 3 4 5 6 7 8 9 10 11 12 13 14 15 16 17 18 19 20 21 22 23 24 25 26 27 28 29 30 31 32 33 34 35 36 37 38 39 40 41 42 43 44 45 46 47 48 49 50
000
FPUS83 KFGF 061210
OPUFGF
PRAIRIE TO PINES WEATHER ROUNDUP
NATIONAL WEATHER SERVICE EASTERN NORTH DAKOTA/GRAND FORKS ND
600 AM CST TUE DEC 06 2016

 **SATELLITE DATA USED TO AUGMENT SKY COVER AT AUTOMATED STATIONS**
 *****  WEATHER ACROSS EASTERN NORTH DAKOTA  *****

CITY           SKY/WX    TMP DP  RH WIND       PRES   REMARKS
GRAND FORKS    LGT SNOW  30  27  88 NW18      29.30F VSB 3/4 WCI  18
6HR MIN TEMP:  30; 6HR MAX TEMP:  30; 6HR PCP:  0.01;

GRAND FORKS AF LGT SNOW  28  27  93 N20       29.32S FOG     WCI  15
GRAND CITY NWS   N/A     28 N/A N/A N14         N/A  WCI  17
BUXTON         NOT AVBL
DEVILS LAKE    LGT SNOW  25  23  93 NW32G43   29.46R VSB 1   WCI   7
6HR MIN TEMP:  25; 6HR MAX TEMP:  27; 6HR PCP: TRACE;

FARGO          LGT SNOW  26  23  88 S13       29.39F FOG     WCI  15
6HR MIN TEMP:  24; 6HR MAX TEMP:  28; 6HR PCP:  0.01;

WAHPETON ARPT  CLOUDY    21  16  79 SW22G30   29.51F WCI   5
$$

 *****  WEATHER ACROSS CENTRAL AND WESTERN NORTH DAKOTA  *****

CITY           SKY/WX    TMP DP  RH WIND       PRES   REMARKS
JAMESTOWN      SNOW      19  16  88 NW39G48   29.50R VSB 1/2 WCI  -2
6HR MIN TEMP:  19; 6HR MAX TEMP:  26; 6HR PCP:  0.02;

BISMARCK       SNOW      11  10  96 NW29G43   29.77R VSB 1/2 WCI -11
6HR MIN TEMP:  11; 6HR MAX TEMP:  14; 6HR PCP:  0.34;

MINOT          SNOW      11   8  88 W40G49    29.74R VSB 1/4 WCI -14
6HR MIN TEMP:  11; 6HR MAX TEMP:  20; 6HR PCP:  0.23;

MINOT AFB      NOT AVBL
GARRISON         N/A      9   5  84 NW37G46   29.76R WCI -16
6HR MIN TEMP:   9; 6HR MAX TEMP:  14; 6HR PCP:  0.10;

WILLISTON      CLOUDY     7   1  76 NW16      29.99R HAZE    WCI -11
6HR MIN TEMP:   7; 6HR MAX TEMP:  10; 6HR PCP:  0.02;

DICKINSON      LGT SNOW   4  -1  80 NW35G41   29.86R VSB 1   WCI -22
6HR MIN TEMP:   4; 6HR MAX TEMP:   5; 6HR PCP:  0.02;

HETTINGER      MIX PCPN   6   1  80 NW32G38   29.89R WCI -18
6HR MIN TEMP:   6; 6HR MAX TEMP:   6; 6HR PCP: TRACE;

$$

 *****  OTHER OBSERVATIONS NORTHEAST NORTH DAKOTA  *****

CITY           SKY/WX    TMP DP  RH WIND       PRES   REMARKS
WALHALLA       LGT SNOW  28  28 100 N30G40    29.40S VSB 3/4 WCI  13
LANGDON        SNOW      27  27 100 N33G40    29.40R VSB 1/2 WCI   9
CAVALIER       SNOW      28  28 100 N23G36    29.35S VSB 1/2 WCI  14
GRAFTON        FOG       28  30 100 N24G32    29.32S VSB 1   WCI  14
CANDO          LGT SNOW  23  23 100 NW32G39   29.54R WCI   5
FORT TOTTEN      N/A     25  25 100 NW20      29.95S WCI  11
ROLLA          HVY SNOW  16  16 100 NW40G53   29.54S VSB 1/4 WCI  -7
RUGBY          LGT SNOW  16  14  93 NW36G45   29.60R VSB 1   WCI  -6
 ***** THE ABOVE OBSERVATIONS ARE NON NWS ARE NOT QUALITY
        CONTROLLED AND MAY MIS-REPORT RAIN FOR SNOW...
$$

 *****  OTHER OBSERVATIONS SOUTHEAST NORTH DAKOTA *****

CITY           SKY/WX    TMP DP  RH WIND       PRES   REMARKS
COOPERSTOWN    MIX PCPN  27  27 100 NW31G39   29.40R VSB 1   WCI  10
VALLEY CITY    LGT SNOW  25  25 100 NW33      29.45R VSB 3/4 WCI   7
OAKES          NOT AVBL
GWINNER          N/A     25  23  93 W28G37    29.49S WCI   8
SHEYENNE NWR     N/A     25  21  86 W16       29.95S WCI  12
BUFFALO        NOT AVBL
WYNDMERE       NOT AVBL
 ***** THE ABOVE OBSERVATIONS ARE NON NWS ARE NOT QUALITY
       CONTROLLED AND MAY MIS-REPORT RAIN FOR SNOW...
$$

  *****  WEATHER ACROSS NORTHERN MINNESOTA  *****

CITY           SKY/WX    TMP DP  RH WIND       PRES   REMARKS
FLAG ISLAND    FLURRIES  32  30  93 S30       29.34R WCI  18
WARROAD        FLURRIES  27  25  93 S15G22    29.35R WCI  15
ROSEAU         FLURRIES  27  21  80 S16       29.33R WCI  14
HALLOCK        LGT SNOW  30  28  93 N18G25    29.26F WCI  18
THF RVR FALLS  LGT SNOW  22  20  92 S28G36    29.31S FOG     WCI   4
6HR MIN TEMP:  22; 6HR MAX TEMP:  32; 6HR PCP:  0.04;

HALSTAD          N/A     25  23  91 S16         N/A  WCI  12
FOSSTON        CLOUDY    18  16  93 S28G35    29.37F WCI  -1
BAUDETTE       CLOUDY    30  24  78 S22G29    29.38R WCI  17
6HR MIN TEMP:  30; 6HR MAX TEMP:  34; 6HR PCP:  0.03;

WASKISH        CLOUDY    27  23  86 S9G20     29.42R WCI  17
CROOKSTON      LGT SNOW  25  25 100 S22       29.31F WCI  10
$$
  *****  WEATHER ACROSS CENTRAL AND WEST MINNESOTA  *****

CITY           SKY/WX    TMP DP  RH WIND       PRES   REMARKS
BEMIDJI        CLOUDY    20  17  86 S14G22    29.43S WCI   7
PARK RAPIDS    CLOUDY    19  11  70 S21G31    29.48F WCI   3
6HR MIN TEMP:  19; 6HR MAX TEMP:  33;

WADENA         MIX PCPN  18  12  79 SW21G29   29.51F WCI   1
DETROIT LAKES  CLOUDY    21  18  86 SW25G31   29.43F WCI   4
MOORHEAD       RAIN      21  19  93 S16G25    29.41F WCI   7
FERGUS FALLS   FLURRIES  18  14  86 SW20G31   29.56F WCI   1
ELBOW LAKE     FLURRIES  18  13  82 SW23G31   29.57S WCI   0
MORRIS MN      FLURRIES  19  12  73 SW26G35   29.60F WCI   1
STAPLES        FLURRIES  18  12  79 S16G23    29.55F WCI   3
WHEATON        SNOW      19  16  86 SW24G35   29.59F VSB 1/2 WCI   2
$$
  *****  WEATHER ELSEWHERE ACROSS MINNESOTA  *****

CITY           SKY/WX    TMP DP  RH WIND       PRES   REMARKS
DULUTH         CLOUDY    31  27  85 SW12      29.54S WCI  22
6HR MIN TEMP:  31; 6HR MAX TEMP:  36;

INTRNTL FALLS  CLOUDY    32  27  81 S14G23    29.44R WCI  22
6HR MIN TEMP:  31; 6HR MAX TEMP:  34; 6HR PCP:  0.02;

ELY            CLOUDY    34  30  86 S13G20    29.50S WCI  25
CLOQUET        CLOUDY    30  23  74 S15G21    29.56S WCI  19
BRAINERD       CLOUDY    20  15  81 S14       29.57F WCI   7
6HR MIN TEMP:  20; 6HR MAX TEMP:  34;

HIBBING        CLOUDY    28  24  85 S12G23    29.50F WCI  18
6HR MIN TEMP:  28; 6HR MAX TEMP:  33;

ALEXANDRIA     CLOUDY    18  12  77 SW20G32   29.58F WCI   2
6HR MIN TEMP:  18; 6HR MAX TEMP:  27; 6HR PCP: TRACE;

SAINT CLOUD    CLOUDY    22  15  75 SW17      29.66F WCI   8
6HR MIN TEMP:  22; 6HR MAX TEMP:  34;

MINNEAPOLIS    CLOUDY    27  18  69 W16G26    29.72S WCI  15
6HR MIN TEMP:  27; 6HR MAX TEMP:  39;

$$

  *****  WEATHER ACROSS SOUTH DAKOTA  *****

CITY           SKY/WX    TMP DP  RH WIND       PRES   REMARKS
SIOUX FALLS    FLURRIES  18  11  74 W18G28    29.84F WCI   2
6HR MIN TEMP:  16; 6HR MAX TEMP:  23; 6HR PCP: TRACE;

BROOKINGS      FLURRIES  14   8  77 W28G35    29.74F WCI  -6
WATERTOWN      LGT SNOW  14   8  77 W29G40    29.66F WCI  -7
6HR MIN TEMP:  13; 6HR MAX TEMP:  18; 6HR PCP: TRACE;

HURON          CLOUDY    14   7  73 W28G36    29.84F WCI  -6
6HR MIN TEMP:  14; 6HR MAX TEMP:  16;

SISSETON         N/A     18  12  77 W21G35    29.57F WCI   1
ABERDEEN       LGT SNOW  16   9  74 W28G38    29.68R WCI  -4
6HR MIN TEMP:  16; 6HR MAX TEMP:  17; 6HR PCP: TRACE;

MITCHELL       CLOUDY    18  10  71 W16G26    29.90R WCI   3
PIERRE         CLOUDY    13   5  70 NW28G44   29.92R WCI  -8
6HR MIN TEMP:  12; 6HR MAX TEMP:  16;

MOBRIDGE       LGT SNOW  14   7  73 NW28G41   29.79R WCI  -6
RAPID CITY     CLEAR     11   2  67 N12       29.93S WCI  -3
6HR MIN TEMP:   3; 6HR MAX TEMP:  18;

$$

  *****  SOME WEATHER IN NEARBY STATES *****

CITY           SKY/WX    TMP DP  RH WIND       PRES   REMARKS
GLASGOW MT     CLOUDY     2  -5  72 NW22      30.10S WCI -20
6HR MIN TEMP:   2; 6HR MAX TEMP:   7;

GREAT FALLS MT CLOUDY     3  -2  79 N8        30.12R WCI -10
6HR MIN TEMP:  -1; 6HR MAX TEMP:   5;

CHEYENNE WY    CLEAR      7 -11  43 W16       29.86S WCI -11
6HR MIN TEMP:   7; 6HR MAX TEMP:  12;

SCOTTSBLUFF NE CLEAR      6   0  76 CALM      29.98S
6HR MIN TEMP:   6; 6HR MAX TEMP:  16;

OMAHA NE       CLEAR     24  12  60 NW17      29.98R WCI  11
6HR MIN TEMP:  24; 6HR MAX TEMP:  34;

DES MOINES IA  CLOUDY    31  19  61 NW21      29.86S WCI  18
6HR MIN TEMP:  31; 6HR MAX TEMP:  40; 6HR PCP: TRACE;

DAVENPORT IA   FOG       32  32 100 E3        29.82R VSB 1/2
6HR MIN TEMP:  32; 6HR MAX TEMP:  33;

CHICAGO IL     PTCLDY    28  28 100 W3        29.80R FOG
6HR MIN TEMP:  25; 6HR MAX TEMP:  35;

EAU CLAIRE WI  LGT SNOW  33  32  96 S10       29.70S FOG     WCI  25
6HR MIN TEMP:  32; 6HR MAX TEMP:  35; 6HR PCP:  0.08;

LA CROSSE WI   CLOUDY    35  32  88 S13       29.77S FOG
6HR MIN TEMP:  34; 6HR MAX TEMP:  37; 6HR PCP: TRACE;

$$

  *****  SOME NATIONAL WEATHER *****

CITY           SKY/WX    TMP DP  RH WIND       PRES   REMARKS
LA GUARDIA NY  CLOUDY    42  29  59 N3        30.14R
6HR MIN TEMP:  41; 6HR MAX TEMP:  45;

RALEIGH NC     LGT RAIN  47  43  86 NE10      29.96S               C1F1C2F2C3F3C4F4C5F5C6F6C7F7C8F8C9F9CaFaCbFbCcFcCdFdCe!


USA.gov is the U.S. government's official web portal to all federal, state and local government web resources and services.